contact:dominique.lefevre@mio.osupytheas.fr, maurice.libes@osupytheas.fr, didier.mallarino@osupytheas.fr
Project:EMSO http://www.emso-fr.org/EMSO-France
Depth: 2436.0 m
Title:EMSO Ligure Ouest : Data MII capteur AQUADOPP
Date,Latitude,Longitude,X_East,Y_North,Z_Up,Amplitude_X,Amplitude_Y,Amplitude_Z,Batterie,SoundSpeed,Heading,Pitch,Roll,Pressure,TIS,Speed,Direction
, degrees North, degrees East, m.s-1, m.s-1,m.s-1, 1, 1, 1, Volt, m.s-1, degree, degree, degree, dbar, degree_C, m.s-1, degree
2020-08-13T00:04:03,42.805,6.029,0.021,0.014,-0.017,102.0,119.0,100.0,13.3,1505.2,325.1,-0.8,1.9,2470.491,13.3,0.025,56.3
2020-08-13T00:07:03,42.805,6.029,0.033,-0.003,0.0,102.0,117.0,100.0,13.3,1505.3,326.4,-0.7,1.9,2470.473,13.31,0.033,95.2
2020-08-13T00:10:03,42.805,6.029,0.016,0.004,-0.008,102.0,118.0,100.0,13.4,1505.3,323.4,-0.7,1.9,2470.457,13.31,0.016,76.0
2020-08-13T00:13:03,42.805,6.029,0.035,0.002,-0.024,103.0,119.0,101.0,13.4,1505.3,326.1,-0.7,1.8,2470.468,13.32,0.035,86.7
2020-08-13T00:16:03,42.805,6.029,0.018,0.008,-0.006,103.0,120.0,100.0,13.3,1505.3,323.3,-0.7,1.8,2470.513,13.32,0.019,66.0
2020-08-13T00:19:03,42.805,6.029,0.018,0.013,0.0,103.0,119.0,100.0,13.4,1505.3,327.9,-0.7,1.8,2470.419,13.32,0.022,54.2
2020-08-13T00:22:03,42.805,6.029,0.011,0.005,-0.005,102.0,118.0,100.0,13.4,1505.3,327.9,-0.7,1.8,2470.454,13.32,0.012,65.6
2020-08-13T00:25:03,42.805,6.029,0.009,0.019,0.017,103.0,117.0,100.0,13.4,1505.3,328.0,-0.7,1.8,2470.494,13.32,0.021,25.3
2020-08-13T00:28:03,42.805,6.029,0.015,-0.005,0.006,103.0,118.0,100.0,13.3,1505.3,324.3,-0.7,1.8,2470.462,13.32,0.015,108.4
2020-08-13T00:31:03,42.805,6.029,0.007,-0.006,-0.032,102.0,118.0,101.0,13.4,1505.3,325.7,-0.7,1.8,2470.467,13.32,0.009,130.6
2020-08-13T00:34:03,42.805,6.029,0.017,0.017,-0.006,103.0,119.0,100.0,13.4,1505.3,324.4,-0.7,1.8,2470.426,13.32,0.024,45.0
2020-08-13T00:37:03,42.805,6.029,-0.001,0.006,-0.02,103.0,119.0,100.0,13.3,1505.3,324.4,-0.7,1.9,2470.501,13.32,0.006,350.5
2020-08-13T00:43:03,42.805,6.029,0.036,0.003,-0.019,102.0,119.0,100.0,13.4,1505.2,324.8,-0.7,1.8,2470.507,13.3,0.036,85.2
2020-08-13T00:46:03,42.805,6.029,0.005,0.032,-0.002,103.0,119.0,100.0,13.4,1505.3,324.9,-0.7,1.9,2470.486,13.31,0.032,8.9
2020-08-13T00:49:03,42.805,6.029,0.023,0.01,0.014,102.0,119.0,100.0,13.4,1505.3,326.4,-0.7,1.8,2470.487,13.31,0.025,66.5
2020-08-13T00:52:03,42.805,6.029,0.025,0.005,0.006,103.0,119.0,100.0,13.4,1505.3,326.4,-0.8,1.8,2470.474,13.32,0.025,78.7
2020-08-13T00:55:03,42.805,6.029,0.013,0.002,-0.017,104.0,118.0,101.0,13.4,1505.3,326.4,-0.7,1.8,2470.499,13.32,0.013,81.3
2020-08-13T00:58:03,42.805,6.029,-0.011,-0.016,-0.035,103.0,120.0,101.0,13.3,1505.3,326.7,-0.7,1.9,2470.509,13.32,0.019,214.5
2020-08-13T01:04:03,42.805,6.029,0.033,0.015,-0.002,105.0,120.0,102.0,13.4,1505.2,325.7,-0.7,1.8,2470.55,13.3,0.036,65.6
2020-08-13T01:07:03,42.805,6.029,0.018,-0.003,-0.04,102.0,118.0,101.0,13.4,1505.3,325.1,-0.7,1.8,2470.465,13.31,0.018,99.5
2020-08-13T01:10:03,42.805,6.029,0.015,-0.001,0.018,104.0,117.0,100.0,13.4,1505.3,326.6,-0.7,1.8,2470.479,13.31,0.015,93.8
2020-08-13T01:13:03,42.805,6.029,0.019,0.027,-0.023,103.0,117.0,101.0,13.4,1505.3,324.4,-0.7,1.8,2470.463,13.32,0.033,35.1
2020-08-13T01:16:03,42.805,6.029,0.031,0.017,-0.012,103.0,118.0,100.0,13.4,1505.3,328.4,-0.7,1.8,2470.462,13.32,0.035,61.3
2020-08-13T01:19:03,42.805,6.029,0.021,0.02,-0.016,103.0,118.0,101.0,13.3,1505.3,324.5,-0.7,1.8,2470.48,13.32,0.028,46.4
2020-08-13T01:22:03,42.805,6.029,0.022,0.015,-0.024,104.0,121.0,100.0,13.4,1505.3,325.1,-0.7,1.8,2470.466,13.32,0.026,55.7
2020-08-13T01:25:03,42.805,6.029,0.026,0.001,-0.023,102.0,119.0,101.0,13.3,1505.3,325.5,-0.7,1.8,2470.47,13.32,0.026,87.8
2020-08-13T01:28:03,42.805,6.029,0.033,0.026,-0.014,104.0,120.0,100.0,13.4,1505.3,325.6,-0.7,1.8,2470.49,13.32,0.042,51.8
2020-08-13T01:31:03,42.805,6.029,0.03,-0.002,-0.023,103.0,118.0,100.0,13.4,1505.3,322.6,-0.7,1.8,2470.451,13.32,0.03,93.8
2020-08-13T01:34:03,42.805,6.029,0.042,0.022,-0.035,103.0,119.0,101.0,13.4,1505.3,324.8,-0.7,1.8,2470.44,13.32,0.047,62.4
2020-08-13T01:37:03,42.805,6.029,0.019,0.016,-0.059,102.0,121.0,101.0,13.4,1505.3,326.9,-0.7,1.8,2470.459,13.32,0.024,49.9
2020-08-13T01:40:03,42.805,6.029,0.026,0.015,-0.056,103.0,119.0,100.0,13.4,1505.3,327.1,-0.7,1.8,2470.495,13.32,0.03,60.0
2020-08-13T01:43:03,42.805,6.029,0.021,0.015,-0.017,103.0,119.0,101.0,13.4,1505.3,325.2,-0.7,1.8,2470.47,13.32,0.025,54.5
2020-08-13T01:46:03,42.805,6.029,0.018,-0.009,-0.049,103.0,119.0,100.0,13.3,1505.3,326.4,-0.7,1.9,2470.414,13.32,0.02,116.6
2020-08-13T01:49:03,42.805,6.029,0.011,0.002,-0.026,103.0,123.0,100.0,13.4,1505.3,324.5,-0.7,1.8,2470.474,13.32,0.011,79.7
2020-08-13T01:52:03,42.805,6.029,0.025,0.016,-0.007,102.0,121.0,100.0,13.4,1505.3,325.4,-0.7,1.8,2470.455,13.32,0.029,57.4
2020-08-13T01:55:03,42.805,6.029,0.042,0.001,0.0,104.0,120.0,100.0,13.3,1505.3,323.7,-0.7,1.8,2470.452,13.32,0.042,88.6
2020-08-13T01:58:03,42.805,6.029,0.029,0.011,-0.028,102.0,117.0,101.0,13.3,1505.3,326.5,-0.7,1.8,2470.46,13.32,0.031,69.2
2020-08-13T02:04:03,42.805,6.029,0.001,0.003,-0.038,103.0,121.0,101.0,13.4,1505.2,324.4,-0.7,1.8,2470.491,13.3,0.003,18.4
2020-08-13T02:07:03,42.805,6.029,0.018,0.019,-0.037,102.0,120.0,102.0,13.4,1505.3,324.7,-0.7,1.8,2470.481,13.31,0.026,43.5
2020-08-13T02:10:03,42.805,6.029,0.027,-0.012,-0.046,102.0,118.0,100.0,13.4,1505.3,324.4,-0.7,1.8,2470.477,13.31,0.029,114.0
2020-08-13T02:13:03,42.805,6.029,0.0,0.017,-0.022,102.0,119.0,101.0,13.3,1505.3,328.7,-0.7,1.9,2470.484,13.32,0.017,0.0
2020-08-13T02:16:03,42.805,6.029,0.006,0.024,-0.023,103.0,119.0,99.0,13.4,1505.3,327.1,-0.7,1.9,2470.445,13.32,0.024,14.0
2020-08-13T02:19:03,42.805,6.029,0.006,0.012,-0.025,103.0,119.0,101.0,13.3,1505.3,328.6,-0.7,1.8,2470.435,13.32,0.013,26.6
2020-08-13T02:22:03,42.805,6.029,-0.011,0.01,-0.029,103.0,119.0,100.0,13.4,1505.3,326.4,-0.7,1.8,2470.477,13.32,0.014,312.3
2020-08-13T02:25:03,42.805,6.029,0.024,0.004,-0.011,102.0,120.0,101.0,13.4,1505.3,326.7,-0.7,1.8,2470.474,13.32,0.024,80.5
2020-08-13T02:28:03,42.805,6.029,0.005,0.015,-0.051,102.0,117.0,101.0,13.4,1505.3,326.9,-0.7,1.8,2470.446,13.32,0.015,18.4
2020-08-13T02:31:03,42.805,6.029,0.033,0.025,-0.045,103.0,120.0,100.0,13.4,1505.3,327.4,-0.7,1.8,2470.509,13.32,0.041,52.9
2020-08-13T02:34:03,42.805,6.029,0.047,-0.001,-0.028,102.0,117.0,100.0,13.4,1505.3,324.1,-0.7,1.8,2470.453,13.32,0.047,91.2
2020-08-13T02:37:03,42.805,6.029,0.006,0.002,-0.053,102.0,120.0,100.0,13.4,1505.3,325.4,-0.7,1.8,2470.47,13.32,0.006,71.6
2020-08-13T02:40:03,42.805,6.029,0.018,0.019,0.005,103.0,117.0,100.0,13.3,1505.3,324.4,-0.8,1.9,2470.458,13.32,0.026,43.5
2020-08-13T02:43:03,42.805,6.029,0.031,0.011,-0.031,103.0,119.0,101.0,13.3,1505.3,326.5,-0.7,1.9,2470.467,13.32,0.032,70.5
2020-08-13T02:46:03,42.805,6.029,0.031,0.019,-0.033,102.0,118.0,101.0,13.4,1505.3,324.3,-0.7,1.8,2470.437,13.32,0.036,58.5
2020-08-13T02:49:03,42.805,6.029,0.007,0.0,-0.016,103.0,119.0,101.0,13.4,1505.3,328.1,-0.7,1.8,2470.443,13.32,0.007,90.0
2020-08-13T02:55:03,42.805,6.029,0.032,0.006,-0.028,103.0,119.0,102.0,13.4,1505.2,324.9,-0.7,1.8,2470.491,13.3,0.032,79.4
2020-08-13T02:58:03,42.805,6.029,0.035,0.006,-0.053,103.0,122.0,101.0,13.4,1505.3,327.0,-0.7,1.8,2470.491,13.31,0.035,80.3
2020-08-13T03:04:03,42.805,6.029,0.032,0.024,0.0,103.0,115.0,102.0,13.3,1505.2,325.2,-0.7,1.8,2470.528,13.3,0.04,53.1
2020-08-13T03:07:03,42.805,6.029,0.0,0.003,-0.024,105.0,119.0,101.0,13.4,1505.3,325.0,-0.7,1.8,2470.44,13.31,0.003,0.0
2020-08-13T03:10:03,42.805,6.029,0.027,0.005,-0.038,104.0,119.0,100.0,13.4,1505.3,325.6,-0.7,1.8,2470.463,13.31,0.027,79.5
2020-08-13T03:13:03,42.805,6.029,0.014,0.015,0.002,102.0,116.0,101.0,13.4,1505.3,324.5,-0.7,1.8,2470.518,13.31,0.02,43.0
2020-08-13T03:16:03,42.805,6.029,0.039,0.007,-0.027,103.0,115.0,100.0,13.3,1505.3,324.1,-0.7,1.8,2470.485,13.32,0.039,79.8
2020-08-13T03:19:03,42.805,6.029,0.012,0.012,-0.023,103.0,118.0,100.0,13.4,1505.3,325.3,-0.7,1.8,2470.492,13.32,0.016,45.0
2020-08-13T03:22:03,42.805,6.029,0.034,0.027,-0.026,102.0,113.0,101.0,13.4,1505.3,325.0,-0.7,1.9,2470.497,13.32,0.043,51.5
2020-08-13T03:25:03,42.805,6.029,0.027,-0.005,-0.03,103.0,115.0,101.0,13.4,1505.3,327.6,-0.7,1.8,2470.464,13.32,0.027,100.5
2020-08-13T03:28:03,42.805,6.029,0.024,0.007,-0.038,103.0,118.0,101.0,13.4,1505.3,327.0,-0.7,1.8,2470.446,13.32,0.025,73.7
2020-08-13T03:31:03,42.805,6.029,0.023,-0.004,-0.019,102.0,116.0,101.0,13.4,1505.3,326.4,-0.7,1.8,2470.445,13.32,0.023,99.9
2020-08-13T03:34:03,42.805,6.029,0.036,-0.008,-0.023,100.0,117.0,101.0,13.4,1505.3,325.0,-0.7,1.8,2470.44,13.32,0.036,102.5
2020-08-13T03:37:03,42.805,6.029,0.011,0.016,-0.024,102.0,115.0,100.0,13.3,1505.3,327.2,-0.7,1.8,2470.456,13.32,0.019,34.5
2020-08-13T03:40:03,42.805,6.029,0.02,-0.004,-0.037,102.0,114.0,101.0,13.3,1505.3,324.8,-0.7,1.8,2470.441,13.32,0.02,101.3
2020-08-13T03:43:03,42.805,6.029,0.002,0.0,-0.018,103.0,118.0,101.0,13.4,1505.3,326.6,-0.7,1.8,2470.44,13.32,0.002,90.0
2020-08-13T03:46:03,42.805,6.029,0.039,0.011,-0.021,102.0,116.0,101.0,13.3,1505.3,324.2,-0.7,1.8,2470.435,13.32,0.04,74.3
2020-08-13T03:49:03,42.805,6.029,0.021,0.02,-0.034,102.0,121.0,100.0,13.4,1505.3,325.0,-0.7,1.8,2470.447,13.32,0.028,46.4
2020-08-13T03:52:03,42.805,6.029,-0.002,0.021,-0.018,102.0,117.0,101.0,13.3,1505.3,325.9,-0.7,1.8,2470.411,13.32,0.021,354.6
2020-08-13T03:55:03,42.805,6.029,0.016,0.01,-0.011,103.0,117.0,100.0,13.3,1505.3,325.2,-0.7,1.8,2470.429,13.32,0.018,58.0
2020-08-13T03:58:03,42.805,6.029,0.013,0.035,-0.022,103.0,118.0,101.0,13.4,1505.3,324.6,-0.7,1.8,2470.421,13.32,0.037,20.4
2020-08-13T04:04:03,42.805,6.029,0.031,0.011,-0.025,102.0,114.0,101.0,13.4,1505.2,322.4,-0.7,1.8,2470.459,13.3,0.032,70.5
2020-08-13T04:07:03,42.805,6.029,0.003,0.014,-0.044,104.0,120.0,100.0,13.3,1505.3,328.1,-0.7,1.8,2470.457,13.31,0.014,12.1
2020-08-13T04:10:03,42.805,6.029,0.026,-0.003,-0.019,103.0,118.0,101.0,13.4,1505.3,325.5,-0.7,1.8,2470.451,13.31,0.026,96.6
2020-08-13T04:13:03,42.805,6.029,0.046,0.012,-0.009,104.0,114.0,100.0,13.4,1505.3,325.2,-0.7,1.8,2470.427,13.32,0.047,75.4
2020-08-13T04:16:03,42.805,6.029,0.037,0.001,-0.04,104.0,119.0,101.0,13.3,1505.3,328.0,-0.7,1.8,2470.458,13.32,0.037,88.5
2020-08-13T04:19:03,42.805,6.029,0.005,0.028,-0.05,102.0,117.0,100.0,13.3,1505.3,326.9,-0.7,1.8,2470.466,13.32,0.028,10.1
2020-08-13T04:22:03,42.805,6.029,0.026,-0.002,-0.04,104.0,114.0,102.0,13.3,1505.3,322.6,-0.7,1.8,2470.418,13.32,0.026,94.4
2020-08-13T04:25:03,42.805,6.029,0.011,0.02,-0.027,102.0,116.0,101.0,13.4,1505.3,326.4,-0.7,1.8,2470.442,13.32,0.022,28.8
2020-08-13T04:28:03,42.805,6.029,0.041,-0.005,-0.058,103.0,114.0,100.0,13.3,1505.3,326.9,-0.7,1.8,2470.398,13.32,0.041,97.0
2020-08-13T04:31:03,42.805,6.029,0.019,0.011,-0.023,104.0,112.0,101.0,13.4,1505.3,325.9,-0.7,1.8,2470.415,13.32,0.021,59.9
2020-08-13T04:34:03,42.805,6.029,0.008,0.0,-0.01,102.0,115.0,101.0,13.4,1505.3,326.1,-0.7,1.8,2470.411,13.32,0.008,90.0
2020-08-13T04:37:03,42.805,6.029,0.036,0.01,-0.022,104.0,114.0,100.0,13.3,1505.3,325.0,-0.7,1.8,2470.427,13.32,0.037,74.5
2020-08-13T04:40:03,42.805,6.029,0.015,0.015,-0.033,103.0,119.0,101.0,13.4,1505.3,324.9,-0.7,1.8,2470.412,13.32,0.021,45.0
2020-08-13T04:43:03,42.805,6.029,0.021,0.015,0.017,103.0,117.0,100.0,13.4,1505.3,328.3,-0.7,1.8,2470.375,13.32,0.025,54.5
2020-08-13T04:46:03,42.805,6.029,0.057,0.001,-0.011,103.0,114.0,101.0,13.4,1505.3,328.0,-0.7,1.8,2470.392,13.32,0.057,89.0
2020-08-13T04:49:03,42.805,6.029,0.046,-0.001,-0.014,102.0,114.0,101.0,13.4,1505.3,327.4,-0.7,1.9,2470.377,13.32,0.046,91.2
2020-08-13T04:52:03,42.805,6.029,0.03,0.0,-0.029,103.0,118.0,101.0,13.3,1505.3,327.9,-0.7,1.8,2470.415,13.32,0.03,90.0
2020-08-13T04:55:03,42.805,6.029,0.017,0.021,-0.043,103.0,116.0,102.0,13.3,1505.3,327.4,-0.7,1.8,2470.365,13.32,0.027,39.0
2020-08-13T04:58:03,42.805,6.029,0.018,0.009,-0.022,102.0,116.0,101.0,13.3,1505.3,326.8,-0.7,1.8,2470.447,13.32,0.02,63.4
2020-08-13T05:04:03,42.805,6.029,0.044,-0.002,-0.026,103.0,115.0,101.0,13.4,1505.2,325.6,-0.7,1.8,2470.444,13.3,0.044,92.6
2020-08-13T05:07:03,42.805,6.029,0.069,-0.004,-0.013,103.0,116.0,101.0,13.4,1505.3,323.5,-0.7,1.8,2470.417,13.31,0.069,93.3
2020-08-13T05:10:03,42.805,6.029,0.012,0.032,0.012,103.0,114.0,101.0,13.4,1505.3,324.5,-0.7,1.8,2470.425,13.31,0.034,20.6
2020-08-13T05:13:03,42.805,6.029,0.013,0.001,-0.013,105.0,117.0,101.0,13.4,1505.3,324.2,-0.7,1.8,2470.428,13.32,0.013,85.6
2020-08-13T05:16:03,42.805,6.029,0.012,0.024,-0.012,102.0,119.0,100.0,13.4,1505.3,328.6,-0.7,1.8,2470.43,13.32,0.026,26.6
2020-08-13T05:19:03,42.805,6.029,0.047,-0.004,0.0,102.0,122.0,100.0,13.4,1505.3,325.7,-0.7,1.8,2470.393,13.32,0.047,94.9
2020-08-13T05:22:03,42.805,6.029,0.05,0.009,0.008,101.0,119.0,101.0,13.4,1505.3,326.4,-0.7,1.8,2470.407,13.32,0.05,79.8
2020-08-13T05:25:03,42.805,6.029,0.033,0.026,-0.01,103.0,122.0,100.0,13.4,1505.3,325.4,-0.7,1.8,2470.409,13.32,0.042,51.8
2020-08-13T05:28:03,42.805,6.029,0.052,0.007,-0.01,102.0,116.0,101.0,13.4,1505.3,324.5,-0.7,1.8,2470.406,13.32,0.052,82.3
2020-08-13T05:31:03,42.805,6.029,0.034,-0.006,-0.006,103.0,115.0,101.0,13.4,1505.3,328.1,-0.7,1.9,2470.441,13.32,0.034,100.0
2020-08-13T05:34:03,42.805,6.029,0.068,-0.002,-0.021,103.0,116.0,100.0,13.4,1505.3,328.6,-0.7,1.8,2470.389,13.32,0.068,91.7
2020-08-13T05:37:03,42.805,6.029,0.031,0.011,-0.028,102.0,118.0,101.0,13.4,1505.3,328.2,-0.7,1.8,2470.416,13.32,0.032,70.5
2020-08-13T05:40:03,42.805,6.029,0.052,0.009,-0.016,103.0,116.0,100.0,13.3,1505.3,327.7,-0.7,1.8,2470.378,13.32,0.052,80.2
2020-08-13T05:43:03,42.805,6.029,0.046,0.016,-0.006,102.0,118.0,101.0,13.4,1505.3,324.3,-0.7,1.8,2470.363,13.32,0.048,70.8
2020-08-13T05:46:03,42.805,6.029,0.045,-0.012,-0.03,103.0,116.0,101.0,13.4,1505.3,326.4,-0.7,1.8,2470.343,13.32,0.046,104.9
2020-08-13T05:49:03,42.805,6.029,0.041,0.025,0.034,104.0,114.0,101.0,13.4,1505.3,326.6,-0.7,1.9,2470.373,13.32,0.048,58.6
2020-08-13T05:52:03,42.805,6.029,0.05,-0.008,-0.009,103.0,113.0,100.0,13.4,1505.3,326.6,-0.7,1.8,2470.393,13.32,0.05,99.1
2020-08-13T05:55:03,42.805,6.029,0.066,-0.007,0.003,102.0,113.0,100.0,13.3,1505.3,327.2,-0.7,1.8,2470.434,13.32,0.066,96.1
2020-08-13T05:58:03,42.805,6.029,0.02,0.019,0.018,102.0,113.0,101.0,13.4,1505.3,326.9,-0.7,1.8,2470.394,13.32,0.027,46.5
2020-08-13T06:04:03,42.805,6.029,0.026,-0.003,-0.014,104.0,110.0,102.0,13.4,1505.2,323.8,-0.7,1.8,2470.425,13.3,0.026,96.6
2020-08-13T06:07:03,42.805,6.029,0.051,-0.014,0.012,104.0,115.0,100.0,13.4,1505.3,324.7,-0.7,1.8,2470.418,13.31,0.052,105.3
2020-08-13T06:10:03,42.805,6.029,0.06,-0.011,0.016,104.0,112.0,101.0,13.4,1505.3,322.6,-0.7,1.8,2470.442,13.31,0.06,100.4
2020-08-13T06:13:03,42.805,6.029,0.031,-0.011,0.013,103.0,109.0,100.0,13.4,1505.3,327.7,-0.7,1.8,2470.427,13.32,0.032,109.5
2020-08-13T06:16:03,42.805,6.029,0.021,-0.012,-0.029,103.0,113.0,101.0,13.3,1505.3,322.8,-0.7,1.8,2470.384,13.32,0.024,119.7
2020-08-13T06:19:03,42.805,6.029,0.046,-0.003,-0.026,102.0,113.0,101.0,13.4,1505.3,324.9,-0.7,1.9,2470.394,13.32,0.046,93.7
2020-08-13T06:22:03,42.805,6.029,0.037,-0.007,0.012,104.0,111.0,102.0,13.4,1505.3,327.5,-0.7,1.8,2470.386,13.32,0.037,100.7
2020-08-13T06:25:03,42.805,6.029,0.036,0.011,0.003,105.0,110.0,101.0,13.4,1505.3,323.7,-0.7,1.8,2470.397,13.32,0.037,73.0
2020-08-13T06:28:03,42.805,6.029,0.054,0.001,0.0,103.0,110.0,101.0,13.4,1505.3,327.2,-0.7,1.8,2470.364,13.32,0.054,88.9
2020-08-13T06:31:03,42.805,6.029,0.042,0.003,-0.015,103.0,112.0,101.0,13.4,1505.3,328.2,-0.7,1.8,2470.402,13.32,0.042,85.9
2020-08-13T06:34:03,42.805,6.029,0.037,0.0,-0.012,103.0,114.0,101.0,13.4,1505.3,325.6,-0.7,1.8,2470.397,13.32,0.037,90.0
2020-08-13T06:37:03,42.805,6.029,0.033,-0.007,-0.019,105.0,112.0,100.0,13.3,1505.3,328.5,-0.7,1.8,2470.383,13.32,0.033,102.0
2020-08-13T06:40:03,42.805,6.029,0.043,-0.014,-0.014,102.0,112.0,100.0,13.4,1505.3,323.3,-0.7,1.8,2470.369,13.32,0.045,108.0
2020-08-13T06:43:03,42.805,6.029,0.022,-0.004,-0.055,102.0,114.0,100.0,13.4,1505.3,326.3,-0.7,1.8,2470.406,13.32,0.022,100.3
2020-08-13T06:46:03,42.805,6.029,0.03,-0.009,-0.015,104.0,111.0,100.0,13.4,1505.3,325.2,-0.7,1.8,2470.361,13.32,0.031,106.7
2020-08-13T06:49:03,42.805,6.029,0.047,0.004,-0.028,103.0,111.0,101.0,13.4,1505.3,325.8,-0.7,1.8,2470.397,13.32,0.047,85.1
2020-08-13T06:52:03,42.805,6.029,0.029,-0.018,-0.035,101.0,111.0,101.0,13.4,1505.3,324.0,-0.7,1.8,2470.44,13.32,0.034,121.8
2020-08-13T06:55:03,42.805,6.029,0.022,-0.01,-0.016,102.0,115.0,102.0,13.4,1505.3,326.3,-0.7,1.8,2470.394,13.32,0.024,114.4
2020-08-13T06:58:03,42.805,6.029,0.037,-0.005,0.011,101.0,114.0,102.0,13.4,1505.3,325.8,-0.7,1.8,2470.36,13.32,0.037,97.7
2020-08-13T07:04:03,42.805,6.029,0.034,-0.002,0.0,102.0,110.0,101.0,13.4,1505.2,325.0,-0.7,1.8,2470.43,13.3,0.034,93.4
2020-08-13T07:07:03,42.805,6.029,0.046,-0.004,-0.016,103.0,109.0,101.0,13.4,1505.3,325.5,-0.7,1.8,2470.423,13.31,0.046,95.0
2020-08-13T07:10:03,42.805,6.029,0.03,0.013,0.028,104.0,113.0,102.0,13.3,1505.3,326.3,-0.7,1.8,2470.385,13.31,0.032,66.6
2020-08-13T07:13:03,42.805,6.029,0.044,-0.015,-0.052,103.0,112.0,101.0,13.4,1505.3,326.8,-0.7,1.8,2470.414,13.32,0.046,108.8
2020-08-13T07:16:03,42.805,6.029,0.043,-0.012,-0.033,103.0,109.0,101.0,13.4,1505.3,325.8,-0.7,1.8,2470.374,13.32,0.044,105.6
2020-08-13T07:19:03,42.805,6.029,0.052,-0.006,0.0,104.0,112.0,100.0,13.4,1505.3,324.5,-0.7,1.8,2470.419,13.32,0.052,96.6
2020-08-13T07:22:03,42.805,6.029,0.047,-0.013,-0.014,102.0,111.0,102.0,13.3,1505.3,326.3,-0.7,1.8,2470.406,13.32,0.048,105.5
2020-08-13T07:25:03,42.805,6.029,0.037,-0.003,-0.014,103.0,109.0,102.0,13.4,1505.3,325.0,-0.7,1.8,2470.394,13.32,0.037,94.6
2020-08-13T07:28:03,42.805,6.029,0.028,-0.01,-0.036,102.0,110.0,101.0,13.4,1505.3,324.7,-0.7,1.9,2470.358,13.32,0.029,109.6
2020-08-13T07:31:03,42.805,6.029,0.052,-0.017,0.005,102.0,110.0,100.0,13.4,1505.3,327.0,-0.7,1.8,2470.375,13.32,0.054,108.1
2020-08-13T07:34:03,42.805,6.029,0.044,0.007,-0.01,103.0,111.0,99.0,13.4,1505.3,326.9,-0.7,1.8,2470.386,13.32,0.044,81.0
2020-08-13T07:37:03,42.805,6.029,0.057,-0.012,0.004,103.0,111.0,100.0,13.3,1505.3,325.1,-0.7,1.8,2470.414,13.32,0.058,101.9
2020-08-13T07:40:03,42.805,6.029,0.037,0.008,-0.019,104.0,112.0,100.0,13.4,1505.3,327.0,-0.7,1.8,2470.379,13.32,0.037,77.8
2020-08-13T07:43:03,42.805,6.029,0.024,-0.02,-0.043,102.0,112.0,100.0,13.4,1505.3,325.6,-0.7,1.9,2470.409,13.32,0.031,129.8
2020-08-13T07:46:03,42.805,6.029,0.035,-0.002,-0.006,103.0,109.0,100.0,13.3,1505.3,326.5,-0.7,1.9,2470.368,13.32,0.035,93.3
2020-08-13T07:49:03,42.805,6.029,0.049,-0.003,0.014,102.0,113.0,101.0,13.4,1505.3,323.6,-0.7,1.8,2470.368,13.32,0.049,93.5
2020-08-13T07:52:03,42.805,6.029,0.032,0.003,-0.019,103.0,110.0,101.0,13.3,1505.3,326.6,-0.7,1.8,2470.38,13.32,0.032,84.6
2020-08-13T07:55:03,42.805,6.029,0.034,-0.009,-0.002,103.0,111.0,99.0,13.4,1505.3,325.4,-0.7,1.8,2470.344,13.32,0.035,104.8
2020-08-13T07:58:03,42.805,6.029,0.027,-0.016,0.004,103.0,108.0,100.0,13.4,1505.3,324.9,-0.7,1.8,2470.326,13.32,0.031,120.7
2020-08-13T08:04:03,42.805,6.029,0.024,-0.009,-0.033,102.0,109.0,101.0,13.4,1505.2,326.9,-0.7,1.8,2470.416,13.3,0.025,110.6
2020-08-13T08:07:03,42.805,6.029,0.042,0.003,-0.002,103.0,109.0,101.0,13.3,1505.3,324.2,-0.7,1.8,2470.401,13.31,0.042,85.9
2020-08-13T08:10:03,42.805,6.029,0.04,-0.019,-0.049,103.0,108.0,101.0,13.4,1505.3,323.4,-0.7,1.8,2470.389,13.31,0.044,115.4
2020-08-13T08:13:03,42.805,6.029,0.045,0.004,-0.009,103.0,109.0,100.0,13.4,1505.3,324.2,-0.7,1.8,2470.412,13.32,0.045,84.9
2020-08-13T08:16:03,42.805,6.029,0.044,0.006,0.001,102.0,110.0,100.0,13.4,1505.3,326.2,-0.7,1.8,2470.398,13.32,0.044,82.2
2020-08-13T08:19:03,42.805,6.029,0.055,0.003,-0.003,103.0,111.0,101.0,13.4,1505.3,325.0,-0.7,1.8,2470.341,13.32,0.055,86.9
2020-08-13T08:22:03,42.805,6.029,0.029,-0.005,-0.008,103.0,109.0,100.0,13.3,1505.3,323.9,-0.7,1.8,2470.372,13.32,0.029,99.8
2020-08-13T08:25:03,42.805,6.029,0.038,0.003,-0.015,102.0,109.0,101.0,13.4,1505.3,328.0,-0.7,1.8,2470.38,13.32,0.038,85.5
2020-08-13T08:28:03,42.805,6.029,0.037,0.0,-0.031,102.0,110.0,101.0,13.3,1505.3,326.4,-0.7,1.8,2470.35,13.32,0.037,90.0
2020-08-13T08:31:03,42.805,6.029,0.042,-0.007,-0.012,102.0,110.0,100.0,13.4,1505.3,322.9,-0.7,1.8,2470.368,13.32,0.042,99.5
2020-08-13T08:34:03,42.805,6.029,0.032,-0.016,-0.042,103.0,112.0,101.0,13.4,1505.3,324.4,-0.7,1.8,2470.41,13.32,0.035,116.6
2020-08-13T08:37:03,42.805,6.029,0.052,0.0,0.0,103.0,111.0,101.0,13.3,1505.3,323.6,-0.7,1.8,2470.361,13.32,0.052,90.0
2020-08-13T08:40:03,42.805,6.029,0.038,0.009,-0.018,103.0,109.0,101.0,13.4,1505.3,327.3,-0.7,1.8,2470.385,13.32,0.039,76.7
2020-08-13T08:43:03,42.805,6.029,0.045,-0.01,-0.015,102.0,110.0,101.0,13.4,1505.3,326.4,-0.7,1.8,2470.346,13.32,0.046,102.5
2020-08-13T08:46:03,42.805,6.029,0.032,-0.005,0.021,103.0,111.0,101.0,13.4,1505.3,326.6,-0.7,1.8,2470.363,13.32,0.032,98.9
2020-08-13T08:49:03,42.805,6.029,0.022,-0.012,-0.058,102.0,110.0,101.0,13.4,1505.3,325.7,-0.7,1.9,2470.352,13.32,0.025,118.6
2020-08-13T08:52:03,42.805,6.029,0.033,0.006,-0.015,103.0,110.0,101.0,13.4,1505.3,328.4,-0.7,1.8,2470.346,13.32,0.033,79.7
2020-08-13T08:55:03,42.805,6.029,0.039,-0.011,0.005,104.0,110.0,101.0,13.3,1505.3,323.5,-0.7,1.8,2470.382,13.32,0.04,105.7
2020-08-13T08:58:03,42.805,6.029,0.035,-0.02,-0.009,100.0,111.0,102.0,13.4,1505.3,326.0,-0.7,1.8,2470.375,13.32,0.04,119.7
2020-08-13T09:04:03,42.805,6.029,0.044,-0.002,0.0,102.0,107.0,100.0,13.4,1505.2,323.8,-0.7,1.8,2470.38,13.3,0.044,92.6
2020-08-13T09:07:03,42.805,6.029,0.034,-0.023,-0.037,102.0,109.0,100.0,13.3,1505.3,325.0,-0.7,1.8,2470.432,13.31,0.041,124.1
2020-08-13T09:10:03,42.805,6.029,0.052,-0.011,-0.006,102.0,109.0,101.0,13.4,1505.3,325.9,-0.7,1.8,2470.4,13.31,0.053,101.9
2020-08-13T09:13:03,42.805,6.029,0.008,-0.002,-0.045,103.0,108.0,100.0,13.4,1505.3,323.7,-0.7,1.8,2470.385,13.32,0.008,104.0
2020-08-13T09:16:03,42.805,6.029,0.04,-0.018,-0.03,102.0,110.0,101.0,13.4,1505.3,324.8,-0.7,1.8,2470.365,13.32,0.043,114.2
2020-08-13T09:19:03,42.805,6.029,0.015,0.011,0.013,101.0,110.0,101.0,13.4,1505.3,327.7,-0.7,1.8,2470.381,13.32,0.018,53.7
2020-08-13T09:22:03,42.805,6.029,0.033,0.006,-0.003,103.0,108.0,100.0,13.4,1505.3,325.3,-0.7,1.8,2470.36,13.32,0.033,79.7
2020-08-13T09:25:03,42.805,6.029,0.038,0.006,-0.005,103.0,107.0,100.0,13.3,1505.3,324.9,-0.6,1.8,2470.373,13.32,0.038,81.0
2020-08-13T09:28:03,42.805,6.029,0.022,-0.011,0.007,102.0,109.0,100.0,13.4,1505.3,326.4,-0.7,1.8,2470.351,13.32,0.024,116.6
2020-08-13T09:31:03,42.805,6.029,0.03,-0.009,0.0,102.0,109.0,101.0,13.3,1505.3,327.0,-0.7,1.8,2470.36,13.32,0.031,106.7
2020-08-13T09:34:03,42.805,6.029,0.035,0.0,0.016,102.0,108.0,100.0,13.3,1505.3,325.4,-0.7,1.8,2470.367,13.32,0.035,90.0
2020-08-13T09:37:03,42.805,6.029,0.031,-0.007,-0.025,103.0,107.0,101.0,13.3,1505.3,327.1,-0.7,1.8,2470.342,13.32,0.031,102.7
2020-08-13T09:40:03,42.805,6.029,0.05,0.001,-0.009,104.0,107.0,100.0,13.4,1505.3,325.0,-0.7,1.8,2470.378,13.32,0.05,88.9
2020-08-13T09:43:03,42.805,6.029,0.024,-0.02,-0.032,102.0,109.0,101.0,13.4,1505.3,326.9,-0.7,1.8,2470.375,13.32,0.031,129.8
2020-08-13T09:46:03,42.805,6.029,0.041,-0.007,-0.011,103.0,111.0,101.0,13.3,1505.3,325.6,-0.7,1.8,2470.364,13.32,0.041,99.7
2020-08-13T09:49:03,42.805,6.029,0.046,-0.005,-0.019,101.0,110.0,100.0,13.3,1505.3,326.9,-0.7,1.8,2470.34,13.32,0.046,96.2
2020-08-13T09:52:03,42.805,6.029,0.032,0.007,0.012,102.0,107.0,100.0,13.4,1505.3,326.3,-0.7,1.9,2470.381,13.32,0.032,77.7
2020-08-13T09:55:03,42.805,6.029,0.046,0.012,-0.009,102.0,109.0,101.0,13.3,1505.3,324.7,-0.7,1.8,2470.358,13.32,0.047,75.4
2020-08-13T09:58:03,42.805,6.029,0.05,0.005,0.003,102.0,109.0,101.0,13.4,1505.3,323.0,-0.8,1.8,2470.363,13.32,0.05,84.3
2020-08-13T10:04:03,42.805,6.029,0.023,0.014,-0.008,103.0,110.0,101.0,13.3,1505.2,325.2,-0.8,1.9,2470.356,13.3,0.026,58.7
2020-08-13T10:07:03,42.805,6.029,0.043,0.008,0.022,102.0,111.0,100.0,13.4,1505.3,327.9,-0.7,1.8,2470.386,13.31,0.043,79.5
2020-08-13T10:10:03,42.805,6.029,0.046,0.006,0.016,102.0,110.0,100.0,13.4,1505.3,325.3,-0.7,1.9,2470.367,13.31,0.046,82.6